Regional Weather Roundup
Issued by NWS

Home | Current Version | Previous Version | Text Only | Print | Product List | Glossary On
Versions: 1 2 3 4 5 6 7 8 9 10 11 12 13 14 15 16 17 18 19 20 21 22 23 24 25 26 27 28 29 30 31 32 33 34 35 36 37 38 39 40 41 42 43 44 45 46 47 48 49 50
000
ASUS43 KIND 280509
RWRIN

WEATHER ROUNDUP FOR INDIANA
NATIONAL WEATHER SERVICE INDIANAPOLIS IN
100 AM EDT FRI AUG 28 2015

NOTE: "FAIR" INDICATES FEW OR NO CLOUDS BELOW 12,000 FEET WITH NO
SIGNIFICANT WEATHER AND/OR OBSTRUCTIONS TO VISIBILITY.

* - STATION DOES NOT REPORT WEATHER SUCH AS PRECIPITATION OR FOG.

+ - STATION NOT QUALITY CONTROLLED BY THE NATIONAL WEATHER SERVICE.
    USE DATA WITH CAUTION...ESPECIALLY DEWPOINT AND RELATIVE
    HUMIDITY OBSERVATIONS.

INZ001>003-010>013-019-020-280600-
NORTHWEST INDIANA

CITY           SKY/WX    TMP DP  RH WIND       PRES   REMARKS
GARY /AIRPORT/ CLEAR     62  55  80 E5        30.15S
KNOX *+        MOCLDY    54  54 100 CALM      30.15R
LA PORTE +     MOCLDY    56  56 100 CALM      30.16S
MICHIGAN CITY+ PTCLDY    55  55 100 CALM      30.16S FOG
MONTICELLO +   PTCLDY    62  58  86 CALM      30.14R
RENSSELAER +   CLEAR     57  57 100 NE5       30.15R
VALPARAISO     PTCLDY    56  54  93 NE5       30.16S

$$

LMZ046-743>745-280600-
SOUTHERN LAKE MICHIGAN

STATION/POSITION TIME  TEMP    WIND        PRES    WAVE
                       AIR SEA DIR/SP/G            HT
                 (UTC) (F)     (DEG/KT/KT) (MB)    (FT)
MICHIGAN CITY    0400   62      40/  7/  7   N/A
5NW MICH CITY    0500   65 71  110/  8/  8   N/A     1

$$

INZ004-005-014>016-021>024-280600-
NORTH CENTRAL INDIANA

CITY           SKY/WX    TMP DP  RH WIND       PRES   REMARKS
GOSHEN         CLEAR     56  53  90 CALM      30.17R
LOGANSPORT +   PTCLDY    57  52  82 E6        30.15S
PERU/GRISSOM   PTCLDY    60  56  86 E3        30.14S
ROCHESTER +    PTCLDY    59  59 100 CALM      30.16R
SOUTH BEND     PTCLDY    58  54  86 E3        30.16S
WARSAW +       CLEAR     54  52  94 CALM      30.16R

$$

INZ006>009-017-018-025>027-280600-
NORTHEAST INDIANA

CITY           SKY/WX    TMP DP  RH WIND       PRES   REMARKS
ANGOLA *+      CLEAR     55  54  94 SE5       30.17F
AUBURN +       CLEAR     55  54  94 E3        30.17S
FORT WAYNE     PTCLDY    58  54  86 E6        30.17R
HUNTINGTON +   CLEAR     58  52  81 E3        30.15S

$$

INZ028-029-035-036-043>045-051>053-280600-
WEST CENTRAL INDIANA

CITY           SKY/WX    TMP DP  RH WIND       PRES   REMARKS
CRAWFORDSVL +  CLEAR     54  54 100 E3        30.13S
GREENCASTLE +  CLEAR     59  54  82 CALM      30.13S
LAFAYETTE      CLEAR     61  57  87 CALM      30.13R
TERRE HAUTE    CLEAR     59  56  89 CALM      30.12R

$$

INZ030>032-037>040-046>048-054>057-064-065-280600-
CENTRAL INDIANA

CITY           SKY/WX    TMP DP  RH WIND       PRES   REMARKS
FRANKFORT +    CLEAR    N/A N/A N/A E7        30.15S
GREENWOOD *+   CLEAR     63  55  77 SE3       30.15R
INDIANAPOLIS   PTCLDY    65  57  75 SE8       30.12R
-EAGLE CREEK   CLEAR     66  57  72 SE3       30.13R
KOKOMO *+      MOCLDY    57  52  82 SE5       30.15S
MARION +       CLEAR     58  49  74 SE3       30.16S
MT COMFORT *+  CLEAR     55 N/A N/A CALM      30.15S
SHELBYVILLE    CLEAR     60  55  83 E3        30.14R
ZIONSVILLE +   CLEAR     59  55  87 CALM      30.15S

$$

INZ033-034-041-042-049-050-058-059-280600-
EAST CENTRAL INDIANA

CITY           SKY/WX    TMP DP  RH WIND       PRES   REMARKS
MUNCIE         CLEAR     55  54  96 E3        30.15S

$$

INZ060-061-067>069-081>083-085>088-280600-
SOUTHWEST INDIANA

CITY           SKY/WX    TMP DP  RH WIND       PRES   REMARKS
EVANSVILLE     CLEAR     65  60  84 CALM      30.11S
HUNTINGBURG *+ CLEAR     63  57  82 SE3       30.12S
WASHINGTON +   CLEAR     60  56  88 CALM      30.12R

$$

INZ062-063-066-070>080-084-089>092-280600-
SOUTH CENTRAL AND SOUTHEAST INDIANA

CITY           SKY/WX    TMP DP  RH WIND       PRES   REMARKS
BLOOMINGTON    CLEAR     58  56  93 CALM      30.13S
MADISON *+     CLEAR     57  55  94 CALM      30.16S
NORTH VERNON + CLEAR     61  61 100 CALM      30.16R
SEYMOUR +      CLEAR     59  55  88 CALM      30.14R

$$



USA.gov is the U.S. government's official web portal to all federal, state and local government web resources and services.